Location: Gleizolles
(44.4833°N, 6.7667°E)
Time: 00:56:33
(UTC+00:00)

S-56A Canister/Altair - Pass Details

Date: 04 July 2024
Orbit: 638 x 2488 km, 38.9° (Epoch: 24 July)

Event Time Altitude Azimuth Distance (km) Brightness Sun altitude
Rises 20:48:29 0° 273° (W) 3,782 11.7 -12.5°
Reaches altitude 10° 20:50:52 10° 267° (W) 3,027 11.1 -12.7°
Maximum altitude 20:58:06 48° 196° (SSW) 1,875 9.2 -13.5°
Enters shadow 21:06:37 16° 131° (SE) 3,772 10.4 -14.4°
Drops below altitude 10° 21:08:50 10° 127° (SE) 4,426 - -14.7°
Sets 21:13:05 0° 123° (ESE) 5,673 - -15.1°
